Regional Weather Roundup
Issued by NWS Albany, NY

Home | Current Version | Previous Version | Graphics & Text | Print | Product List | Glossary Off
Versions: 1 2 3 4 5 6 7 8 9 10 11 12 13 14 15 16 17 18 19 20 21 22 23 24 25 26 27

000
ASUS41 KALY 161310
RWRALY

NEW YORK STATE HOURLY WEATHER ROUNDUP
NATIONAL WEATHER SERVICE ALBANY NY
800 AM EST TUE JAN 16 2018

NOTE: "FAIR" INDICATES FEW OR NO CLOUDS BELOW 12,000 FEET WITH NO
SIGNIFICANT WEATHER AND/OR NO OBSTRUCTIONS TO VISIBILITY.

NYZ032-033-038>043-046>054-057>066-NYZ062>081-082-084-161400-
EAST


CITY           SKY/WX    TMP DP  RH WIND       PRES   REMARKS
ALBANY         CLOUDY    18  12  77 CALM      30.48R
GLENS FALLS    CLOUDY    14  10  84 CALM      30.48R FOG
POUGHKEEPSIE   LGT SNOW  22  18  85 CALM      30.50S FOG
NEWBURGH       LGT SNOW  21  21 100 CALM      30.48S FOG
MONTGOMERY     LGT SNOW  22  19  89 CALM      30.47S FOG
WHITE PLAINS   MOCLDY    22  17  81 CALM      30.49S
ISLIP          MOCLDY    27  21  78 NW7       30.53R WCI  19
NEW YORK CITY  CLOUDY    27  22  81 NE8       30.51S WCI  19
CENTRAL PARK   CLOUDY    28  23  81 SE5       30.52S WCI  23
$$

NYZ005>009-017-018-044>046-055-056-161400-
CENTRAL


CITY           SKY/WX    TMP DP  RH WIND       PRES   REMARKS
FULTON         LGT SNOW  19  16  86 SE5       30.38R FOG     WCI  13
SYRACUSE       FLURRIES  17  16  95 E6        30.38F WCI   9
ROME           LGT SNOW  18  15  88 SE8       30.42S FOG     WCI   8
ELMIRA         CLOUDY    19  18  95 CALM      30.36S FOG
BINGHAMTON     CLOUDY    21  19  93 S6        30.32R WCI  14
MONTICELLO     LGT SNOW  19  17  92 CALM      30.40S FOG
$$

NYZ026>034-041>043-087-161400-
NORTH


CITY           SKY/WX    TMP DP  RH WIND       PRES   REMARKS
WATERTOWN      LGT SNOW  22  10  60 NE3       30.38F
FORT DRUM      NOT AVBL
OGDENSBURG     MOCLDY     6   3  86 NE3       30.42S
MASSENA        CLOUDY     4   1  88 E5        30.45S WCI  -5
SARANAC LAKE   CLOUDY     8   6  92 CALM      30.28S
PLATTSBURGH    MOCLDY     3  -1  83 CALM      30.44S
$$

NYZ001>004-010>016-019>021-085-161400-
WEST


CITY           SKY/WX    TMP DP  RH WIND       PRES   REMARKS
NIAGARA FALLS  CLOUDY    26  21  81 SW7       30.34R WCI  18
BUFFALO        FLURRIES  25  20  81 SW13      30.34R WCI  14
DUNKIRK        MOCLDY    23  16  74 SW8       30.37R WCI  14
JAMESTOWN      FAIR      16  13  88 CALM      30.30R
WELLSVILLE     CLOUDY    20  16  84 SW6       30.28S WCI  12
ROCHESTER      LGT SNOW  24  20  84 SW8       30.36R FOG     WCI  15
PENN YAN       FAIR      22  17  81 S10       30.35R WCI  11
$$

             KEY
       WCI = WIND CHILL INDEX
       VSB = VISIBILITY
       HX  = HEAT INDEX
$$




USA.gov is the U.S. government's official web portal to all federal, state and local government web resources and services.